Tracking 20623 objects as of 4-Apr-2020
HD Live streaming from Space Station
objects crossing your sky now

CENTAURI-1

Track CENTAURI-1 now!
10-day predictions


NORAD ID: 43809
Int'l Code: 2018-099BD
Perigee: 576.2 km
Apogee: 599.5 km
Inclination: 97.7 °
Period: 96.3 minutes
Semi major axis: 6958 km
RCS: Unknown
Launch date: December 3, 2018
Source: Australia (AUS)
Launch site: AIR FORCE WESTERN TEST RANGE (AFWTR)
aabbcc
Your satellite tracking list
Your tracking list is empty




NASA's NSSDC Master Catalog

Two Line Element Set (TLE):
1 43809U 18099BD  20094.74177871  .00000551  00000-0  54797-4 0  9995
2 43809  97.7099 167.7940 0016770  83.5152 276.7977 14.95532634 72473
Source of the keplerian elements: AFSPC